Cosmos 2084 Rocket - Orbit

View from above orbital plane
View from above orbital plane
View from above satellite
View from above satellite

Ground track
Ground track

The orbit data is extracted from the following two-line orbital elements,

1 20666U 90055D   13168.83437869  .00000412  00000-0  62423-4 0  8881
2 20666 062.7896 333.6903 0042083 213.7910 146.0499 14.88623537243499
Epoch (UTC): 17 June 2013 20:01:30
Eccentricity: 0.0042083
inclination: 62.7896°
perigee height: 573 km
apogee height: 631 km
right ascension of ascending node: 333.6903°
argument of perigee: 213.7910°
revolutions per day: 14.88623537
mean anomaly at epoch: 146.0499°
orbit number at epoch: 24349

The dashed part of the orbit path shows where the satellite is in the earth's shadow,  

Developed and maintained by Chris Peat, Heavens-Above GmbH. Please read the updated FAQ before sending e-mail. Imprint. DLR